When you browse on this site, cookies collect data to enhance your experience and personalize the content and advertising you see.
Visit our Privacy Policy to learn more. By continuing to use the site, you agree to this use of cookies and data.
  • In Hungary
  • List of Countries
  • For 7 days
  • Water Temperature
  • Satellite Maps
  • Weather Map
  • News
  • Weather Widgets
  • user-avatar
    Login

    Hourly Weather Clorinda

    Today, 16 July, Tuesday

    Time Temperature Precipitation Wind Pressure Humidity
    00:00 +14°C° 0 mm 2 mps 760 mmHg 74%
    01:00 +13°C° 0 mm 2 mps 760 mmHg 77%
    02:00 +13°C° 0 mm 2 mps 759 mmHg 79%
    03:00 +12°C° 0 mm 2 mps 760 mmHg 80%
    04:00 +12°C° 0 mm 2 mps 760 mmHg 82%
    05:00 +12°C° 0 mm 2 mps 760 mmHg 83%
    06:00 +12°C° 0 mm 3 mps 760 mmHg 80%
    07:00 +12°C° 0 mm 3 mps 761 mmHg 77%
    08:00 +13°C° 0 mm 3 mps 761 mmHg 74%
    09:00 +16°C° 0 mm 3 mps 761 mmHg 66%
    10:00 +18°C° 0 mm 3 mps 761 mmHg 58%
    11:00 +21°C° 0 mm 2 mps 761 mmHg 49%
    12:00 +21°C° 0 mm 2 mps 761 mmHg 47%
    13:00 +23°C° 0 mm 2 mps 760 mmHg 44%
    14:00 +23°C° 0 mm 2 mps 759 mmHg 42%
    15:00 +21°C° 0 mm 2 mps 759 mmHg 49%
    16:00 +19°C° 0 mm 2 mps 759 mmHg 55%
    17:00 +18°C° 0 mm 2 mps 759 mmHg 62%
    18:00 +16°C° 0 mm 2 mps 759 mmHg 66%
    19:00 +15°C° 0 mm 2 mps 759 mmHg 69%
    20:00 +13°C° 0 mm 3 mps 759 mmHg 73%
    21:00 +13°C° 0 mm 2 mps 759 mmHg 74%
    22:00 +12°C° 0 mm 2 mps 760 mmHg 75%
    23:00 +12°C° 0 mm 1 mps 760 mmHg 76%

    Tomorrow, 17 July, Wednesday

    Time Temperature Precipitation Wind Pressure Humidity
    00:00 +11°C° 0 mm 1 mps 760 mmHg 78%
    01:00 +11°C° 0 mm 1 mps 760 mmHg 79%
    02:00 +11°C° 0 mm 1 mps 760 mmHg 81%
    03:00 +10°C° 0 mm 1 mps 760 mmHg 81%
    04:00 +10°C° 0 mm 1 mps 760 mmHg 81%
    05:00 +9°C° 0 mm 2 mps 760 mmHg 82%
    06:00 +10°C° 0 mm 2 mps 760 mmHg 78%
    07:00 +12°C° 0 mm 2 mps 760 mmHg 75%
    08:00 +13°C° 0 mm 1 mps 761 mmHg 71%
    09:00 +15°C° 0 mm 2 mps 761 mmHg 63%
    10:00 +18°C° 0 mm 2 mps 760 mmHg 55%
    11:00 +20°C° 0 mm 2 mps 760 mmHg 47%
    12:00 +21°C° 0 mm 2 mps 759 mmHg 45%
    13:00 +23°C° 0 mm 2 mps 759 mmHg 43%
    14:00 +24°C° 0 mm 2 mps 758 mmHg 41%
    15:00 +23°C° 0 mm 2 mps 758 mmHg 48%
    16:00 +22°C° 0 mm 1 mps 757 mmHg 54%
    17:00 +20°C° 0 mm 1 mps 757 mmHg 61%
    18:00 +19°C° 0 mm 1 mps 757 mmHg 65%
    19:00 +18°C° 0 mm 1 mps 757 mmHg 69%
    20:00 +17°C° 0 mm 2 mps 758 mmHg 73%
    21:00 +17°C° 0 mm 2 mps 758 mmHg 74%
    22:00 +17°C° 0 mm 2 mps 758 mmHg 75%
    23:00 +17°C° 0 mm 3 mps 758 mmHg 77%

    Day after tomorrow, 18 July, Thursday

    Time Temperature Precipitation Wind Pressure Humidity
    00:00 +17°C° 0 mm 3 mps 757 mmHg 73%
    01:00 +18°C° 0 mm 3 mps 757 mmHg 70%
    02:00 +18°C° 0 mm 3 mps 757 mmHg 66%
    03:00 +18°C° 0 mm 3 mps 757 mmHg 65%
    04:00 +19°C° 0 mm 3 mps 757 mmHg 63%
    05:00 +19°C° 0 mm 4 mps 756 mmHg 61%
    06:00 +19°C° 0 mm 3 mps 757 mmHg 63%
    07:00 +18°C° 0 mm 3 mps 758 mmHg 65%
    08:00 +18°C° 0 mm 3 mps 758 mmHg 67%
    09:00 +19°C° 0 mm 3 mps 758 mmHg 66%
    10:00 +19°C° 0 mm 3 mps 758 mmHg 65%
    11:00 +20°C° 0 mm 3 mps 759 mmHg 64%
    12:00 +20°C° 0.1 mm 3 mps 758 mmHg 64%
    13:00 +20°C° 0.1 mm 3 mps 758 mmHg 65%
    14:00 +21°C° 0.1 mm 3 mps 758 mmHg 65%
    15:00 +20°C° 0.3 mm 2 mps 758 mmHg 69%
    16:00 +19°C° 0.3 mm 2 mps 758 mmHg 73%
    17:00 +18°C° 0.3 mm 2 mps 758 mmHg 77%
    18:00 +18°C° 0.2 mm 2 mps 758 mmHg 79%
    19:00 +17°C° 0.2 mm 2 mps 758 mmHg 81%
    20:00 +17°C° 0.2 mm 2 mps 759 mmHg 83%
    21:00 +17°C° 0.1 mm 2 mps 759 mmHg 84%
    22:00 +17°C° 0.1 mm 2 mps 759 mmHg 85%
    23:00 +17°C° 0.1 mm 2 mps 759 mmHg 85%

    19 July, Friday

    Time Temperature Precipitation Wind Pressure Humidity
    00:00 +17°C° 0 mm 2 mps 758 mmHg 85%
    01:00 +16°C° 0 mm 2 mps 758 mmHg 85%
    02:00 +16°C° 0 mm 1 mps 758 mmHg 85%
    03:00 +16°C° 0 mm 1 mps 758 mmHg 85%
    04:00 +16°C° 0 mm 1 mps 758 mmHg 85%
    05:00 +16°C° 0 mm 1 mps 758 mmHg 86%
    06:00 +18°C° 0 mm 1 mps 758 mmHg 85%
    07:00 +18°C° 0 mm 1 mps 758 mmHg 84%
    08:00 +19°C° 0 mm 1 mps 758 mmHg 83%
    09:00 +20°C° 0 mm 2 mps 758 mmHg 77%
    10:00 +23°C° 0 mm 2 mps 758 mmHg 71%
    11:00 +25°C° 0 mm 2 mps 758 mmHg 65%
    12:00 +26°C° 0 mm 2 mps 757 mmHg 63%
    13:00 +27°C° 0 mm 3 mps 756 mmHg 61%
    14:00 +28°C° 0 mm 3 mps 755 mmHg 59%
    15:00 +27°C° 0 mm 3 mps 755 mmHg 63%
    16:00 +26°C° 0 mm 2 mps 755 mmHg 67%
    17:00 +25°C° 0 mm 2 mps 754 mmHg 72%
    18:00 +24°C° 0 mm 2 mps 754 mmHg 75%
    19:00 +22°C° 0 mm 3 mps 754 mmHg 78%
    20:00 +21°C° 0 mm 3 mps 754 mmHg 81%
    21:00 +21°C° 0 mm 3 mps 754 mmHg 81%
    22:00 +20°C° 0 mm 3 mps 753 mmHg 81%
    23:00 +20°C° 0 mm 3 mps 753 mmHg 82%

    20 July, Saturday

    Time Temperature Precipitation Wind Pressure Humidity
    00:00 +20°C° 0 mm 3 mps 753 mmHg 82%
    01:00 +19°C° 0 mm 3 mps 753 mmHg 83%
    02:00 +19°C° 0 mm 3 mps 753 mmHg 84%
    03:00 +19°C° 0 mm 3 mps 752 mmHg 82%
    04:00 +19°C° 0 mm 3 mps 752 mmHg 81%
    05:00 +19°C° 0 mm 3 mps 752 mmHg 79%
    06:00 +20°C° 0 mm 4 mps 752 mmHg 76%
    07:00 +21°C° 0 mm 4 mps 752 mmHg 72%
    08:00 +22°C° 0 mm 5 mps 753 mmHg 69%
    09:00 +25°C° 0 mm 5 mps 753 mmHg 64%
    10:00 +26°C° 0 mm 5 mps 752 mmHg 59%
    11:00 +28°C° 0 mm 6 mps 752 mmHg 54%
    12:00 +29°C° 0 mm 6 mps 751 mmHg 51%
    13:00 +30°C° 0 mm 6 mps 751 mmHg 47%
    14:00 +33°C° 0 mm 6 mps 750 mmHg 44%
    15:00 +30°C° 0 mm 5 mps 750 mmHg 48%
    16:00 +29°C° 0 mm 4 mps 750 mmHg 53%
    17:00 +28°C° 0 mm 3 mps 749 mmHg 58%
    18:00 +28°C° 0 mm 4 mps 750 mmHg 57%
    19:00 +27°C° 0 mm 5 mps 750 mmHg 56%
    20:00 +27°C° 0 mm 5 mps 750 mmHg 54%
    21:00 +27°C° 0 mm 6 mps 750 mmHg 53%
    22:00 +26°C° 0 mm 6 mps 750 mmHg 52%
    23:00 +26°C° 0 mm 6 mps 750 mmHg 51%

    21 July, Sunday

    Time Temperature Precipitation Wind Pressure Humidity
    00:00 +26°C° 0 mm 6 mps 750 mmHg 50%
    01:00 +24°C° 0 mm 6 mps 749 mmHg 49%
    02:00 +24°C° 0 mm 6 mps 749 mmHg 49%
    03:00 +24°C° 0 mm 6 mps 749 mmHg 48%
    04:00 +23°C° 0 mm 6 mps 749 mmHg 48%
    05:00 +23°C° 0 mm 6 mps 748 mmHg 48%
    06:00 +23°C° 0 mm 6 mps 749 mmHg 48%
    07:00 +24°C° 0 mm 6 mps 749 mmHg 48%
    08:00 +24°C° 0 mm 6 mps 749 mmHg 49%
    09:00 +27°C° 0 mm 7 mps 749 mmHg 45%
    10:00 +29°C° 0 mm 7 mps 749 mmHg 41%
    11:00 +32°C° 0 mm 8 mps 749 mmHg 36%
    12:00 +33°C° 0 mm 8 mps 748 mmHg 36%
    13:00 +33°C° 0 mm 7 mps 747 mmHg 35%
    14:00 +34°C° 0 mm 7 mps 746 mmHg 34%
    15:00 +33°C° 0 mm 6 mps 746 mmHg 37%
    16:00 +32°C° 0 mm 5 mps 746 mmHg 41%
    17:00 +29°C° 0 mm 4 mps 746 mmHg 45%
    18:00 +29°C° 0 mm 5 mps 746 mmHg 42%
    19:00 +29°C° 0 mm 5 mps 746 mmHg 40%
    20:00 +29°C° 0 mm 6 mps 747 mmHg 38%
    21:00 +28°C° 0 mm 5 mps 747 mmHg 39%
    22:00 +28°C° 0 mm 5 mps 747 mmHg 40%
    23:00 +27°C° 0 mm 5 mps 747 mmHg 41%
    Show more